AAL732 TNCC-KJFK

Flight info

Callsign AAL732
Flight time N/A
Altitude 33000
Route KARUM1K/11 ITCHE L454 ATUGI L454 OKONU YAALE Y495 MOUGH Y495 CAMRN
Aircraft B738/M-SDE1E2E3FGHIJ2J3J4J5M1RWXYZ/LB1

Departure

Time N/A
Airport Hato International Airport (TNCC)

Arrival

Time 2026-05-04 00:52
Airport John F. Kennedy International Airport (KJFK)
Time Latitude Longitude Altitude Speed Heading
2026-05-04 00:18 39.25690 -72.22722 28582 ft 424 kts 311°
2026-05-04 00:18 39.26297 -72.23366 28412 ft 422 kts 314°
2026-05-04 00:19 39.28543 -72.25739 27796 ft 415 kts 315°
2026-05-04 00:19 39.30766 -72.28080 27174 ft 409 kts 315°
2026-05-04 00:19 39.32960 -72.30391 26566 ft 404 kts 315°
2026-05-04 00:19 39.35124 -72.32676 25973 ft 399 kts 315°
2026-05-04 00:20 39.37257 -72.34932 25394 ft 393 kts 315°
2026-05-04 00:20 39.39372 -72.37175 24833 ft 394 kts 315°
2026-05-04 00:20 39.41499 -72.39436 24280 ft 397 kts 315°
2026-05-04 00:20 39.43635 -72.41708 23731 ft 396 kts 316°
2026-05-04 00:21 39.45756 -72.43963 23114 ft 393 kts 316°
2026-05-04 00:21 39.47834 -72.46172 22482 ft 390 kts 316°
2026-05-04 00:21 39.49926 -72.48398 21869 ft 388 kts 316°
2026-05-04 00:21 39.52003 -72.50611 21261 ft 386 kts 316°
2026-05-04 00:22 39.54075 -72.52819 20658 ft 383 kts 316°
2026-05-04 00:22 39.56128 -72.55011 20078 ft 381 kts 316°
2026-05-04 00:22 39.58162 -72.57183 19495 ft 378 kts 316°
2026-05-04 00:22 39.60188 -72.59348 18938 ft 376 kts 316°
2026-05-04 00:23 39.62199 -72.61499 18390 ft 373 kts 316°
2026-05-04 00:23 39.64187 -72.63628 17863 ft 368 kts 317°
2026-05-04 00:23 39.66153 -72.65733 17320 ft 363 kts 317°
2026-05-04 00:23 39.68087 -72.67806 16785 ft 358 kts 317°
2026-05-04 00:24 39.69968 -72.69825 16273 ft 353 kts 317°
2026-05-04 00:24 39.71850 -72.71847 15759 ft 349 kts 317°
2026-05-04 00:24 39.73712 -72.73849 15256 ft 345 kts 317°
2026-05-04 00:24 39.75555 -72.75831 14754 ft 342 kts 317°
2026-05-04 00:25 39.77380 -72.77795 14272 ft 340 kts 317°
2026-05-04 00:25 39.79184 -72.79736 14069 ft 331 kts 317°
2026-05-04 00:25 39.80796 -72.81848 14002 ft 332 kts 302°
2026-05-04 00:25 39.81207 -72.82718 14009 ft 334 kts 297°
2026-05-04 00:26 39.81789 -72.84401 14002 ft 337 kts 289°
2026-05-04 00:26 39.82232 -72.87410 13997 ft 342 kts 274°
2026-05-04 00:26 39.82210 -72.90498 13993 ft 342 kts 270°
2026-05-04 00:26 39.82107 -72.93587 13987 ft 342 kts 269°
2026-05-04 00:27 39.81991 -72.96681 13987 ft 342 kts 269°
2026-05-04 00:27 39.81880 -72.99775 13988 ft 342 kts 270°
2026-05-04 00:27 39.81779 -73.02858 13990 ft 342 kts 270°
2026-05-04 00:27 39.81685 -73.05948 13994 ft 342 kts 270°
2026-05-04 00:28 39.81594 -73.09040 13986 ft 342 kts 270°
2026-05-04 00:28 39.81506 -73.12112 13797 ft 337 kts 270°
2026-05-04 00:28 39.81419 -73.15113 13544 ft 327 kts 270°
2026-05-04 00:28 39.81335 -73.18027 13229 ft 319 kts 270°
2026-05-04 00:29 39.81251 -73.20884 12903 ft 312 kts 271°
2026-05-04 00:29 39.81170 -73.23601 12568 ft 298 kts 271°
2026-05-04 00:29 39.81255 -73.26226 12238 ft 286 kts 283°
2026-05-04 00:29 39.81855 -73.28685 11932 ft 279 kts 293°
2026-05-04 00:30 39.82590 -73.30974 11631 ft 276 kts 295°
2026-05-04 00:30 39.83345 -73.33254 11325 ft 272 kts 295°
2026-05-04 00:30 39.84080 -73.35478 11007 ft 263 kts 295°
2026-05-04 00:30 39.84786 -73.37633 10699 ft 254 kts 295°
2026-05-04 00:31 39.85464 -73.39720 10398 ft 247 kts 296°
2026-05-04 00:31 39.86121 -73.41751 10092 ft 240 kts 296°
2026-05-04 00:31 39.86752 -73.43710 9880 ft 231 kts 297°
2026-05-04 00:31 39.87365 -73.45615 9703 ft 227 kts 296°
2026-05-04 00:32 39.87971 -73.47498 9543 ft 224 kts 296°
2026-05-04 00:32 39.88567 -73.49355 9356 ft 221 kts 296°
2026-05-04 00:32 39.89160 -73.51206 9159 ft 222 kts 296°
2026-05-04 00:32 39.89758 -73.53072 9048 ft 225 kts 296°
2026-05-04 00:33 39.90362 -73.54959 9001 ft 227 kts 296°
2026-05-04 00:33 39.90945 -73.56786 8994 ft 225 kts 296°
2026-05-04 00:33 39.91546 -73.58672 8964 ft 227 kts 296°
2026-05-04 00:34 39.92151 -73.60571 8789 ft 226 kts 296°
2026-05-04 00:34 39.92753 -73.62451 8660 ft 223 kts 297°
2026-05-04 00:34 39.93416 -73.64269 8525 ft 222 kts 299°
2026-05-04 00:34 39.94110 -73.66079 8394 ft 222 kts 299°
2026-05-04 00:35 39.94801 -73.67877 8256 ft 222 kts 299°
2026-05-04 00:35 39.95490 -73.69680 8138 ft 222 kts 298°
2026-05-04 00:35 39.96176 -73.71478 7995 ft 222 kts 298°
2026-05-04 00:35 39.96860 -73.73279 7871 ft 222 kts 298°
2026-05-04 00:36 39.97543 -73.75082 7743 ft 221 kts 298°
2026-05-04 00:36 39.98224 -73.76882 7609 ft 221 kts 298°
2026-05-04 00:36 39.98904 -73.78680 7483 ft 221 kts 297°
2026-05-04 00:36 39.99581 -73.80473 7352 ft 220 kts 297°
2026-05-04 00:37 40.00256 -73.82261 7226 ft 220 kts 298°
2026-05-04 00:37 40.01199 -73.83802 7076 ft 219 kts 323°
2026-05-04 00:37 40.02585 -73.84578 7018 ft 224 kts 345°
2026-05-04 00:37 40.04157 -73.84557 6964 ft 231 kts
2026-05-04 00:38 40.05673 -73.83851 6794 ft 227 kts 17°
2026-05-04 00:38 40.07073 -73.83020 6572 ft 221 kts 18°
2026-05-04 00:38 40.08440 -73.82179 6387 ft 213 kts 18°
2026-05-04 00:38 40.09769 -73.81362 6261 ft 210 kts 17°
2026-05-04 00:39 40.11101 -73.80552 6152 ft 213 kts 17°
2026-05-04 00:39 40.12463 -73.79729 6015 ft 218 kts 18°
2026-05-04 00:39 40.13846 -73.78894 5872 ft 218 kts 18°
2026-05-04 00:39 40.15219 -73.78065 5721 ft 216 kts 18°
2026-05-04 00:40 40.16582 -73.77244 5569 ft 215 kts 18°
2026-05-04 00:40 40.17925 -73.76434 5448 ft 211 kts 17°
2026-05-04 00:40 40.19271 -73.75627 5306 ft 215 kts 18°
2026-05-04 00:41 40.20613 -73.74823 5167 ft 217 kts 18°
2026-05-04 00:41 40.21979 -73.74004 5027 ft 221 kts 18°
2026-05-04 00:41 40.23413 -73.73146 4896 ft 225 kts 18°
2026-05-04 00:41 40.24831 -73.72293 4784 ft 223 kts 18°
2026-05-04 00:42 40.26229 -73.71451 4679 ft 219 kts 18°
2026-05-04 00:42 40.27596 -73.70630 4566 ft 220 kts 18°
2026-05-04 00:42 40.28989 -73.69794 4469 ft 220 kts 18°
2026-05-04 00:42 40.30381 -73.68958 4354 ft 220 kts 18°
2026-05-04 00:43 40.31776 -73.68119 4252 ft 221 kts 18°
2026-05-04 00:43 40.33172 -73.67279 4149 ft 221 kts 18°
2026-05-04 00:43 40.34567 -73.66440 4047 ft 221 kts 18°
2026-05-04 00:43 40.35911 -73.65631 3946 ft 222 kts 18°
2026-05-04 00:44 40.37317 -73.64785 3844 ft 222 kts 18°
2026-05-04 00:44 40.38716 -73.63942 3741 ft 222 kts 18°
2026-05-04 00:44 40.40100 -73.63108 3634 ft 221 kts 18°
2026-05-04 00:44 40.41515 -73.62254 3537 ft 221 kts 18°
2026-05-04 00:45 40.42898 -73.61421 3432 ft 221 kts 18°
2026-05-04 00:45 40.44291 -73.60580 3329 ft 221 kts 18°
2026-05-04 00:45 40.45689 -73.59736 3231 ft 221 kts 18°
2026-05-04 00:45 40.47064 -73.58904 3107 ft 213 kts 19°
2026-05-04 00:46 40.48366 -73.58113 2983 ft 198 kts 18°
2026-05-04 00:46 40.49577 -73.57377 2933 ft 189 kts 18°
2026-05-04 00:46 40.50765 -73.56672 2943 ft 186 kts 13°
2026-05-04 00:46 40.52008 -73.56504 2950 ft 177 kts 345°
2026-05-04 00:47 40.53000 -73.57273 2959 ft 165 kts 307°
2026-05-04 00:47 40.53789 -73.58406 2940 ft 169 kts 313°
2026-05-04 00:47 40.54575 -73.59559 2935 ft 169 kts 306°
2026-05-04 00:47 40.55296 -73.60776 2929 ft 166 kts 304°
2026-05-04 00:48 40.55915 -73.61970 2840 ft 152 kts 301°
2026-05-04 00:48 40.56460 -73.63128 2657 ft 147 kts 299°
2026-05-04 00:48 40.56983 -73.64275 2453 ft 145 kts 298°
2026-05-04 00:48 40.57498 -73.65412 2293 ft 143 kts 298°
2026-05-04 00:49 40.58011 -73.66551 2080 ft 145 kts 298°
2026-05-04 00:49 40.58525 -73.67691 1867 ft 146 kts 298°
2026-05-04 00:49 40.59044 -73.68842 1663 ft 144 kts 298°
2026-05-04 00:49 40.59541 -73.69943 1459 ft 135 kts 298°
2026-05-04 00:50 40.60005 -73.70971 1282 ft 131 kts 297°
2026-05-04 00:50 40.60469 -73.72001 1041 ft 127 kts 297°
2026-05-04 00:50 40.60919 -73.72993 806 ft 131 kts 297°
2026-05-04 00:50 40.61381 -73.74083 742 ft 142 kts 298°
2026-05-04 00:51 40.61895 -73.75203 539 ft 141 kts 300°
2026-05-04 00:51 40.62394 -73.76299 333 ft 135 kts 298°
2026-05-04 00:51 40.62859 -73.77339 136 ft 130 kts 300°
2026-05-04 00:51 40.63306 -73.78316 30 ft 118 kts 300°
2026-05-04 00:52 40.63666 -73.79124 20 ft 82 kts 300°
2026-05-04 00:52 40.63833 -73.79479 19 ft 22 kts 319°
2026-05-04 00:52 40.63978 -73.79515 20 ft 21 kts
2026-05-04 00:52 40.64007 -73.79513 20 ft 0 kts
2026-05-04 00:53 40.64008 -73.79513 20 ft 0 kts
2026-05-04 00:53 40.64042 -73.79511 20 ft 12 kts
2026-05-04 00:54 40.64145 -73.79508 20 ft 15 kts
2026-05-04 00:54 40.64250 -73.79501 19 ft 15 kts 11°
2026-05-04 00:54 40.64351 -73.79490 19 ft 14 kts
2026-05-04 00:54 40.64447 -73.79487 19 ft 14 kts 345°
2026-05-04 00:55 40.64538 -73.79505 19 ft 13 kts 353°
2026-05-04 00:55 40.64622 -73.79538 18 ft 13 kts 327°
2026-05-04 00:55 40.64669 -73.79582 18 ft 13 kts 322°
2026-05-04 00:55 40.64742 -73.79633 18 ft 0 kts
2026-05-04 00:56 40.64755 -73.79621 17 ft 9 kts 41°
2026-05-04 00:56 40.64778 -73.79548 18 ft 14 kts 76°
2026-05-04 00:56 40.64826 -73.79430 17 ft 14 kts 59°
2026-05-04 00:56 40.64875 -73.79322 17 ft 14 kts 59°
2026-05-04 00:57 40.64893 -73.79223 17 ft 11 kts 124°
2026-05-04 00:57 40.64849 -73.79190 17 ft 4 kts 151°
2026-05-04 00:57 40.64842 -73.79185 19 ft 0 kts 150°